WD5EAA Weather Reports


time (UTC)temp
C
wind
direction
speed
KPH
gust
KPH
rain 1hr
cm
rain 24hr
cm
rain mn
cm
humidity
%
barometer
mb
20260508085015 6 300 9.7 17.7 0.00 0.00 0.00 88 1016.2
20260508084530 6 286 11.3 16.1 0.00 0.00 0.00 89 1016.2
20260508084016 5 293 9.7 14.5 0.00 0.00 0.00 89 1016.1
20260508083517 5 295 8.0 12.9 0.00 0.00 0.00 89 1016.1
20260508083038 5 287 8.0 12.9 0.00 0.00 0.00 89 1016.1
20260508082522 5 286 9.7 12.9 0.00 0.00 0.00 88 1016.2
20260508082015 5 284 9.7 12.9 0.00 0.00 0.00 88 1016.3
20260508081535 5 279 9.7 12.9 0.00 0.00 0.00 87 1016.2
20260508081020 5 275 9.7 11.3 0.00 0.00 0.00 87 1016.3
20260508080517 5 274 9.7 12.9 0.00 0.00 0.00 87 1016.4
20260508080034 5 274 9.7 12.9 0.00 0.00 0.00 86 1016.4
20260508075516 6 275 8.0 11.3 0.00 0.00 0.00 87 1016.4
20260508075016 6 254 6.4 11.3 0.00 0.00 0.00 86 1016.3
20260508074532 6 261 8.0 11.3 0.00 0.00 0.00 85 1016.5
20260508074016 6 246 4.8 9.7 0.00 0.00 0.00 85 1016.3
20260508073519 6 228 4.8 14.5 0.00 0.00 0.00 84 1016.1
20260508073033 6 262 4.8 14.5 0.00 0.00 0.00 84 1016.3
20260508072515 6 196 9.7 14.5 0.00 0.00 0.00 83 1016.1
20260508072016 7 246 4.8 8.0 0.00 0.00 0.00 84 1016.2
20260508071532 7 246 4.8 11.3 0.00 0.00 0.00 83 1016.1
20260508071015 7 199 6.4 12.9 0.00 0.00 0.00 83 1016.2
20260508070516 7 139 6.4 12.9 0.00 0.00 0.00 83 1016.0
20260508070032 7 132 8.0 12.9 0.00 0.00 0.00 82 1015.9
20260508065515 7 112 6.4 11.3 0.00 0.00 0.00 81 1015.9
20260508065016 8 107 6.4 16.1 0.00 0.00 0.00 81 1016.1
20260508064551 8 22 8.0 24.1 0.00 0.00 0.00 80 1016.7
20260508064016 8 16 11.3 27.4 0.00 0.00 0.00 80 1017.1
20260508063516 8 344 16.1 27.4 0.00 0.00 0.00 79 1017.5
20260508063032 8 333 16.1 27.4 0.00 0.00 0.00 78 1017.9
20260508062516 8 351 14.5 22.5 0.00 0.00 0.00 78 1017.5
20260508062013 8 9 8.0 14.5 0.00 0.00 0.00 77 1016.6
20260508061532 8 66 11.3 14.5 0.00 0.00 0.00 77 1016.2
20260508061016 8 82 11.3 16.1 0.00 0.00 0.00 77 1015.9
20260508060518 8 88 12.9 16.1 0.00 0.00 0.00 77 1015.9
20260508060036 8 90 12.9 16.1 0.00 0.00 0.00 76 1015.9
20260508055515 8 97 12.9 17.7 0.00 0.00 0.00 76 1015.8
20260508055018 8 96 12.9 19.3 0.00 0.00 0.00 75 1015.7
20260508054548 8 86 14.5 19.3 0.00 0.00 0.00 76 1015.8
20260508054016 8 86 14.5 19.3 0.00 0.00 0.00 76 1015.8
20260508053515 8 83 12.9 22.5 0.00 0.00 0.00 76 1015.8
20260508053032 8 91 14.5 22.5 0.00 0.00 0.00 75 1015.8
20260508052515 9 87 17.7 22.5 0.00 0.00 0.00 73 1015.8
20260508052019 9 78 14.5 17.7 0.00 0.00 0.00 72 1016.1
20260508051532 9 62 11.3 17.7 0.00 0.00 0.00 73 1016.7
20260508051017 9 53 14.5 17.7 0.00 0.00 0.00 73 1016.9
20260508050516 9 36 14.5 17.7 0.00 0.00 0.00 73 1016.7
20260508050036 9 46 16.1 17.7 0.00 0.00 0.00 73 1016.5
20260508045515 9 49 14.5 20.9 0.00 0.00 0.00 72 1016.3
20260508045016 9 62 14.5 20.9 0.00 0.00 0.00 71 1016.0
20260508044532 9 65 17.7 20.9 0.00 0.00 0.00 71 1015.8
20260508044016 9 69 17.7 20.9 0.00 0.00 0.00 70 1015.7
20260508043515 9 67 14.5 22.5 0.00 0.00 0.00 70 1015.8
20260508043042 10 74 14.5 25.7 0.00 0.00 0.00 69 1015.7
20260508042515 10 67 17.7 25.7 0.00 0.00 0.00 68 1015.7
20260508042012 10 64 19.3 32.2 0.00 0.00 0.00 67 1015.6
20260508041534 10 64 20.9 33.8 0.00 0.00 0.00 66 1015.8
20260508041016 10 67 25.7 33.8 0.00 0.00 0.00 64 1015.7
20260508040516 11 63 27.4 33.8 0.00 0.00 0.00 63 1015.8
20260508040041 11 59 24.1 37.0 0.00 0.00 0.00 61 1015.9
20260508035521 11 49 19.3 37.0 0.00 0.00 0.00 60 1016.0
20260508035016 11 33 17.7 37.0 0.00 0.00 0.00 59 1016.1
20260508034534 12 53 27.4 37.0 0.00 0.00 0.00 55 1016.3
20260508034015 13 38 9.7 20.9 0.00 0.00 0.00 47 1016.2
20260508033515 13 136 8.0 37.0 0.00 0.00 0.00 46 1016.0
20260508033034 13 200 9.7 45.1 0.00 0.00 0.00 44 1016.1
20260508032517 12 225 24.1 45.1 0.00 0.00 0.00 51 1015.9
20260508032017 12 213 9.7 12.9 0.00 0.00 0.00 56 1016.3
20260508031530 12 205 6.4 9.7 0.00 0.00 0.00 54 1016.1
20260508031015 12 217 6.4 8.0 0.00 0.00 0.00 54 1015.9
20260508030520 12 217 4.8 8.0 0.00 0.00 0.00 54 1015.7
20260508030032 12 230 4.8 8.0 0.00 0.00 0.00 53 1015.6
20260508025517 12 225 4.8 12.9 0.00 0.00 0.00 54 1015.5
20260508025016 12 245 4.8 12.9 0.00 0.00 0.00 54 1015.5
20260508024532 12 256 4.8 14.5 0.00 0.00 0.00 54 1015.5
20260508024016 12 290 8.0 14.5 0.00 0.00 0.00 54 1015.7
20260508023516 12 269 6.4 14.5 0.00 0.00 0.00 53 1015.7
20260508023032 13 308 4.8 24.1 0.00 0.00 0.00 52 1015.6
20260508022515 13 352 16.1 32.2 0.00 0.00 0.00 51 1015.5
20260508022016 13 37 17.7 37.0 0.00 0.00 0.00 51 1015.3
20260508021530 12 22 25.7 37.0 0.00 0.00 0.00 52 1015.0
20260508021022 12 13 24.1 33.8 0.00 0.00 0.00 54 1014.7
20260508020515 13 26 24.1 33.8 0.00 0.00 0.00 53 1014.8
20260508020030 13 30 25.7 37.0 0.00 0.00 0.00 51 1014.6
20260508015515 13 30 25.7 45.1 0.00 0.00 0.00 48 1014.5
20260508015019 13 36 29.0 45.1 0.00 0.00 0.00 46 1014.3
20260508014532 14 32 30.6 45.1 0.00 0.00 0.00 42 1014.1
20260508014016 15 32 16.1 20.9 0.00 0.00 0.00 39 1014.1
20260508013515 15 24 16.1 19.3 0.00 0.00 0.00 37 1014.0
20260508013032 15 20 12.9 19.3 0.00 0.00 0.00 36 1014.0
20260508012519 15 49 11.3 19.3 0.00 0.00 0.00 34 1013.9
20260508012016 15 12 3.2 8.0 0.00 0.00 0.00 37 1013.8
20260508011541 15 338 0.0 4.8 0.00 0.00 0.00 37 1013.7
20260508011015 15 313 1.6 6.4 0.00 0.00 0.00 37 1013.8
20260508010515 15 309 3.2 6.4 0.00 0.00 0.00 39 1013.8
20260508010038 15 308 4.8 8.0 0.00 0.00 0.00 39 1013.8
20260508005515 16 306 3.2 9.7 0.00 0.00 0.00 38 1013.8
20260508005017 16 302 4.8 14.5 0.00 0.00 0.00 34 1013.8
20260508004538 16 338 6.4 14.5 0.00 0.00 0.00 34 1013.6
20260508004014 16 320 6.4 22.5 0.00 0.00 0.00 33 1013.7
20260508003516 17 301 8.0 22.5 0.00 0.00 0.00 32 1013.6
20260508003030 17 322 11.3 22.5 0.00 0.00 0.00 31 1013.5
20260508002516 18 297 14.5 22.5 0.00 0.00 0.00 29 1013.5
20260508002016 18 288 14.5 25.7 0.00 0.00 0.00 28 1013.5
20260508001534 18 298 16.1 25.7 0.00 0.00 0.00 27 1013.6
20260508001017 18 287 17.7 25.7 0.00 0.00 0.00 27 1013.6
20260508000517 18 275 17.7 25.7 0.00 0.00 0.00 30 1013.6
20260508000030 18 298 14.5 27.4 0.00 0.00 0.00 27 1013.6
20260507235516 19 311 16.1 30.6 0.00 0.00 0.00 27 1013.5
20260507235016 19 267 20.9 30.6 0.00 0.00 0.00 27 1013.5
20260507234541 19 292 20.9 29.0 0.00 0.00 0.00 28 1013.6
20260507234015 19 281 17.7 27.4 0.00 0.00 0.00 27 1013.6
20260507233516 19 318 16.1 32.2 0.00 0.00 0.00 28 1013.6
20260507233034 19 271 12.9 32.2 0.00 0.00 0.00 27 1013.6
20260507232519 19 273 22.5 32.2 0.00 0.00 0.00 27 1013.6
20260507232016 19 278 16.1 32.2 0.00 0.00 0.00 28 1013.7
20260507231537 19 306 22.5 41.8 0.00 0.00 0.00 27 1013.8
20260507231016 18 281 25.7 43.5 0.00 0.00 0.00 27 1013.8
20260507230516 18 292 25.7 43.5 0.00 0.00 0.00 28 1013.8
20260507230032 18 282 24.1 33.8 0.00 0.00 0.00 27 1013.7
20260507225516 18 313 22.5 33.8 0.00 0.00 0.00 28 1013.7
20260507225016 18 307 22.5 46.7 0.00 0.00 0.00 26 1013.8
20260507224530 18 280 29.0 46.7 0.00 0.00 0.00 28 1013.9
20260507224018 18 312 32.2 45.1 0.00 0.00 0.00 27 1013.7
20260507223520 18 286 27.4 40.2 0.00 0.00 0.00 26 1013.8
20260507223030 18 283 25.7 41.8 0.00 0.00 0.00 29 1013.7
20260507222523 17 287 32.2 41.8 0.00 0.00 0.00 27 1013.8
20260507222016 18 302 24.1 43.5 0.00 0.00 0.00 27 1013.8
20260507221532 18 286 30.6 45.1 0.00 0.00 0.00 28 1013.8
20260507221016 18 279 29.0 46.7 0.00 0.00 0.00 28 1013.9
20260507220520 19 281 25.7 51.5 0.00 0.00 0.00 29 1014.0
20260507220031 19 279 32.2 51.5 0.00 0.00 0.00 27 1013.9
20260507215518 19 304 35.4 51.5 0.00 0.00 0.00 27 1014.0
20260507215016 19 273 30.6 51.5 0.00 0.00 0.00 28 1014.1
20260507214531 19 275 37.0 54.7 0.00 0.00 0.00 28 1014.1
20260507214016 19 303 37.0 54.7 0.00 0.00 0.00 27 1014.2
20260507213516 19 298 32.2 49.9 0.00 0.00 0.00 28 1014.2
20260507213039 18 313 37.0 48.3 0.00 0.00 0.00 27 1014.1
20260507212516 19 305 27.4 45.1 0.00 0.00 0.00 27 1014.2
20260507212022 18 304 33.8 49.9 0.00 0.00 0.00 28 1014.4
20260507211542 18 313 35.4 49.9 0.00 0.00 0.00 28 1014.4
20260507211014 18 284 32.2 43.5 0.00 0.00 0.00 27 1014.5
20260507210519 18 304 30.6 49.9 0.00 0.00 0.00 29 1014.6
20260507210033 18 312 32.2 59.5 0.00 0.00 0.00 27 1014.6
20260507205513 19 313 40.2 59.5 0.00 0.00 0.00 28 1014.8
20260507205016 19 276 35.4 53.1 0.00 0.00 0.00 27 1014.7
20260507204531 18 302 32.2 54.7 0.00 0.00 0.00 29 1014.7
20260507204016 19 300 35.4 57.9 0.00 0.00 0.00 28 1014.9
20260507203516 19 273 35.4 57.9 0.00 0.00 0.00 29 1014.9
20260507203032 19 281 37.0 57.9 0.00 0.00 0.00 28 1014.8
20260507202515 19 278 32.2 56.3 0.00 0.00 0.00 31 1015.0
20260507202020 18 291 32.2 56.3 0.00 0.00 0.00 29 1015.1
20260507201533 18 250 37.0 54.7 0.00 0.00 0.00 31 1014.9
20260507201016 18 253 29.0 48.3 0.00 0.00 0.00 32 1014.9
20260507200516 18 273 32.2 48.3 0.00 0.00 0.00 30 1015.1
20260507200031 18 285 25.7 45.1 0.00 0.00 0.00 32 1015.1
20260507195515 18 277 20.9 45.1 0.00 0.05 0.00 33 1015.3
20260507195017 18 298 29.0 49.9 0.00 0.05 0.00 31 1015.4
20260507194530 18 292 29.0 49.9 0.00 0.05 0.00 31 1015.5
20260507194016 18 271 35.4 49.9 0.00 0.05 0.00 33 1015.4
20260507193516 18 265 29.0 40.2 0.00 0.05 0.00 32 1015.5
20260507193031 18 264 22.5 40.2 0.00 0.05 0.00 32 1015.6
20260507192515 18 244 27.4 40.2 0.00 0.05 0.00 32 1015.7
20260507192016 18 263 30.6 40.2 0.00 0.05 0.00 32 1015.7
20260507191531 18 281 29.0 40.2 0.00 0.05 0.00 33 1015.9
20260507191020 18 314 25.7 38.6 0.00 0.05 0.00 33 1016.0
20260507190520 18 284 24.1 45.1 0.00 0.05 0.00 32 1016.0
20260507190030 17 262 30.6 45.1 0.00 0.05 0.00 33 1016.0
20260507185516 18 284 32.2 40.2 0.00 0.20 0.00 34 1016.1
20260507185016 17 261 25.7 38.6 0.00 0.20 0.00 35 1016.2
20260507184532 17 270 20.9 37.0 0.00 0.20 0.00 33 1016.2
20260507184020 17 255 22.5 43.5 0.00 0.20 0.00 33 1016.1
20260507183516 17 284 24.1 43.5 0.00 0.20 0.00 35 1016.3
20260507183031 17 251 25.7 43.5 0.00 0.20 0.00 35 1016.3
20260507182513 17 269 20.9 40.2 0.00 0.20 0.00 35 1016.4
20260507182016 17 241 22.5 40.2 0.00 0.20 0.00 35 1016.4
20260507181534 17 290 27.4 40.2 0.00 0.20 0.00 35 1016.4
20260507181019 17 281 24.1 35.4 0.00 0.20 0.00 37 1016.4
20260507180516 17 271 25.7 35.4 0.00 0.20 0.00 34 1016.4
20260507180031 17 265 25.7 33.8 0.00 0.20 0.00 35 1016.4
20260507175522 17 272 24.1 32.2 0.00 0.43 0.00 38 1016.4
20260507175016 17 269 22.5 35.4 0.00 0.43 0.00 39 1016.4
20260507174544 16 269 20.9 38.6 0.00 0.43 0.00 38 1016.6
20260507174019 16 250 24.1 38.6 0.00 0.43 0.00 40 1016.6
20260507173521 16 258 27.4 38.6 0.00 0.43 0.00 38 1016.7
20260507173030 15 256 24.1 38.6 0.00 0.43 0.00 44 1016.7
20260507172515 15 248 27.4 38.6 0.00 0.43 0.00 42 1016.7
20260507172021 15 236 29.0 38.6 0.00 0.43 0.00 41 1016.8
20260507171540 15 269 32.2 40.2 0.00 0.43 0.00 41 1016.8
20260507171015 15 263 30.6 40.2 0.00 0.43 0.00 40 1016.9
20260507170515 16 242 27.4 38.6 0.00 0.43 0.00 39 1016.9
20260507170032 15 265 27.4 35.4 0.00 0.43 0.00 39 1017.0
20260507165521 15 235 29.0 35.4 0.00 0.56 0.00 41 1017.1
20260507165017 15 238 27.4 35.4 0.00 0.56 0.00 44 1017.1
20260507164530 15 246 27.4 35.4 0.00 0.56 0.00 46 1017.2
20260507164016 14 240 25.7 35.4 0.00 0.56 0.00 45 1017.2
20260507163516 14 252 27.4 35.4 0.00 0.56 0.00 42 1017.3
20260507163030 13 257 25.7 35.4 0.00 0.56 0.00 46 1017.2
20260507162516 13 236 27.4 35.4 0.00 0.56 0.00 44 1017.3
20260507162016 13 264 27.4 33.8 0.00 0.56 0.00 47 1017.3
20260507161530 13 265 27.4 33.8 0.00 0.56 0.00 47 1017.5
20260507161015 12 248 25.7 32.2 0.00 0.56 0.00 46 1017.5
20260507160516 12 253 24.1 32.2 0.00 0.56 0.00 47 1017.5
20260507160037 12 257 22.5 32.2 0.00 0.56 0.00 48 1017.6
20260507155516 12 249 22.5 30.6 0.00 0.71 0.00 48 1017.6
20260507155014 12 230 20.9 29.0 0.00 0.71 0.00 49 1017.7
20260507154530 11 224 19.3 29.0 0.00 0.71 0.00 51 1017.8
20260507154015 11 213 20.9 29.0 0.00 0.71 0.00 50 1017.8
20260507153516 10 229 19.3 25.7 0.00 0.71 0.00 52 1017.7
20260507153032 10 200 20.9 29.0 0.00 0.71 0.00 50 1017.7
20260507152517 10 199 20.9 29.0 0.00 0.71 0.00 52 1017.6
20260507152018 10 212 19.3 27.4 0.00 0.71 0.00 52 1017.7
20260507151531 10 188 19.3 24.1 0.00 0.71 0.00 52 1017.7
20260507151016 10 209 17.7 29.0 0.00 0.71 0.00 54 1017.7
20260507150516 9 215 16.1 30.6 0.00 0.71 0.00 54 1017.7
20260507150036 9 239 20.9 30.6 0.00 0.71 0.00 53 1017.7
20260507145516 9 232 20.9 29.0 0.00 0.71 0.00 52 1017.6
20260507145020 8 237 20.9 32.2 0.00 0.71 0.00 52 1017.7
20260507144530 8 240 25.7 33.8 0.00 0.71 0.00 49 1017.6
20260507144016 8 220 22.5 33.8 0.00 0.71 0.00 52 1017.6
20260507143515 8 233 24.1 29.0 0.00 0.71 0.00 52 1017.7
20260507143032 8 228 22.5 32.2 0.00 0.71 0.00 53 1017.6
20260507142517 7 232 22.5 32.2 0.00 0.71 0.00 53 1017.5
20260507142019 7 228 22.5 30.6 0.00 0.71 0.00 53 1017.6
20260507141533 7 207 25.7 30.6 0.00 0.71 0.00 54 1017.4
20260507141018 6 237 24.1 30.6 0.00 0.71 0.00 54 1017.5
20260507140516 6 241 19.3 24.1 0.00 0.71 0.00 56 1017.5
20260507140041 6 235 14.5 27.4 0.00 0.71 0.00 56 1017.6
20260507135516 6 234 19.3 35.4 0.00 0.71 0.00 54 1017.6
20260507135018 6 235 24.1 38.6 0.00 0.71 0.00 54 1017.5
20260507134532 5 243 30.6 40.2 0.00 0.71 0.00 53 1017.4
20260507134016 5 237 30.6 45.1 0.00 0.71 0.00 53 1017.3
20260507133516 5 236 37.0 45.1 0.00 0.71 0.00 52 1017.2
20260507133034 5 246 32.2 40.2 0.00 0.71 0.00 53 1017.1
20260507132515 5 236 30.6 38.6 0.00 0.71 0.00 52 1017.2
20260507132015 5 242 29.0 35.4 0.00 0.71 0.00 54 1017.2
20260507131603 5 242 27.4 38.6 0.00 0.71 0.00 54 1017.3
20260507131016 4 247 29.0 38.6 0.00 0.71 0.00 55 1017.1
20260507130516 4 246 29.0 40.2 0.00 0.71 0.00 53 1017.1
20260507130029 4 244 30.6 40.2 0.00 0.71 0.00 53 1017.1
20260507125516 4 246 32.2 40.2 0.00 0.71 0.00 52 1017.1
20260507125015 4 246 30.6 38.6 0.00 0.71 0.00 52 1016.9
20260507124532 4 250 29.0 38.6 0.00 0.71 0.00 53 1016.8
20260507124017 3 235 29.0 35.4 0.00 0.71 0.00 55 1016.7
20260507123517 3 235 25.7 38.6 0.00 0.71 0.00 55 1016.6
20260507123041 3 240 25.7 38.6 0.00 0.71 0.00 55 1016.7
20260507122518 3 238 29.0 38.6 0.00 0.71 0.00 54 1016.6
20260507122016 3 237 29.0 40.2 0.00 0.71 0.00 56 1016.5
20260507121532 3 236 29.0 40.2 0.00 0.71 0.00 55 1016.5
20260507121016 3 243 32.2 40.2 0.00 0.71 0.00 55 1016.5
20260507120516 3 238 30.6 38.6 0.00 0.71 0.00 55 1016.5
20260507120035 3 234 29.0 38.6 0.00 0.71 0.00 55 1016.4
20260507115515 3 239 29.0 37.0 0.00 0.71 0.00 55 1016.3
20260507115015 3 234 27.4 40.2 0.00 0.71 0.00 55 1016.4
20260507114533 3 230 29.0 40.2 0.00 0.71 0.00 55 1016.4
20260507114020 3 236 27.4 35.4 0.00 0.71 0.00 54 1016.4
20260507113516 3 238 29.0 37.0 0.00 0.71 0.00 53 1016.4
20260507113059 3 237 29.0 37.0 0.00 0.71 0.00 54 1016.3
20260507112520 2 232 27.4 35.4 0.00 0.71 0.00 55 1016.3
20260507112016 2 236 27.4 35.4 0.00 0.71 0.00 56 1016.3
20260507111532 2 234 25.7 33.8 0.00 0.71 0.00 57 1016.4
20260507111016 2 233 22.5 32.2 0.00 0.71 0.00 57 1016.4
20260507110516 2 227 24.1 32.2 0.00 0.71 0.00 58 1016.4
20260507110036 2 235 24.1 29.0 0.00 0.71 0.00 58 1016.4
20260507105520 2 230 22.5 32.2 0.00 0.71 0.00 57 1016.4
20260507105016 2 240 25.7 35.4 0.00 0.71 0.00 56 1016.5
20260507104530 2 238 27.4 35.4 0.00 0.71 0.00 56 1016.5
20260507104014 3 238 27.4 37.0 0.00 0.71 0.00 55 1016.6
20260507103517 2 238 25.7 37.0 0.00 0.71 0.00 57 1016.6
20260507103033 2 234 27.4 37.0 0.00 0.71 0.00 57 1016.7
20260507102515 2 232 27.4 37.0 0.00 0.71 0.00 58 1016.6
20260507102017 2 233 27.4 38.6 0.00 0.71 0.00 58 1016.7
20260507101530 2 240 29.0 38.6 0.00 0.71 0.00 57 1016.7
20260507101015 2 236 27.4 38.6 0.00 0.71 0.00 59 1016.7
20260507100515 2 236 29.0 37.0 0.00 0.71 0.00 59 1016.8
20260507100042 2 234 29.0 37.0 0.00 0.71 0.00 60 1016.8
20260507095515 2 224 27.4 37.0 0.00 0.71 0.00 60 1016.7
20260507095017 2 243 27.4 35.4 0.00 0.71 0.00 61 1016.8
20260507094531 2 237 27.4 37.0 0.00 0.71 0.00 62 1016.8
20260507094017 2 234 27.4 37.0 0.00 0.71 0.00 61 1016.8
20260507093516 2 238 30.6 41.8 0.00 0.71 0.00 60 1016.9
20260507093034 2 241 30.6 41.8 0.00 0.71 0.00 60 1016.8
20260507092517 2 238 27.4 37.0 0.00 0.71 0.00 59 1016.8
20260507092017 2 241 27.4 40.2 0.00 0.71 0.00 61 1016.9
20260507091539 2 241 27.4 40.2 0.00 0.71 0.00 60 1016.8
20260507091016 2 239 30.6 37.0 0.00 0.71 0.00 60 1016.8
20260507090516 2 229 29.0 37.0 0.00 0.71 0.00 63 1016.9
20260507090032 2 229 29.0 38.6 0.00 0.71 0.00 62 1016.8
20260507085515 2 235 29.0 38.6 0.00 0.71 0.00 62 1016.9